Terug naar catalogus

STARLINK-35212

ActiefCommunicatieVLEO
NORAD 65496·PAYLOAD·🇺🇸 United States

Gelanceerd Sep 5, 2025 vanaf Cape Canaveral Space Force Station

Loading…

Volgende Passages (komende 24 uur)

TLE

VersSource: CelesTrak SupGP

Epoch: Sep 14, 2026, 14:28 UTC

1 65496C 25198E   26257.60326389  .00019060  00000+0  56279-3 0  2578
2 65496  53.1566 111.0221 0001241  95.4117  86.1997 15.34400514    19

Volg STARLINK-35212 in realtime met AllMySat

Download on the App Store